Regional Weather Roundup
Issued by NWS

Home | Current Version | Previous Version | Graphics & Text | Print | Product List | Glossary On
Versions: 1 2 3 4 5 6 7 8 9 10 11 12 13 14 15 16 17 18 19 20 21 22 23 24 25 26 27 28 29 30 31 32 33 34 35 36 37 38 39 40 41 42 43 44 45 46 47 48 49 50
000
ASUS45 KABQ 181001
RWRNM
WEATHER ROUNDUP FOR NEW MEXICO
NATIONAL WEATHER SERVICE ALBUQUERQUE NM
400 AM MDT FRI APR 18 2014

NOTE: "FAIR" MEANS FEW OR NO CLOUDS BELOW 12,000 FEET AGL WITH NO
       SIGNIFICANT WEATHER OR OBSTRUCTIONS TO VISION.

      THIS PRODUCT IS RELEASED AS TWO VERSIONS.  ONE VERSION NEAR
      THE TOP OF THE HOUR CONTAINING PRELIMINARY DATA FROM ALBUQUERQUE
      AND OTHER STATIONS.  A FINAL VERSION WITH ADDITIONAL DATA IS
      ISSUED ABOUT 10 MINUTES AFTER THE HOUR.

NMZ501-503-504-510>518-181100-
NORTHWEST PLATEAU/NORTHCENTRAL MOUNTAINS

CITY           SKY/WX    TMP DP  RH WIND       PRES   REMARKS
FARMINGTON     CLEAR     40  20  44 NE8       30.09S WCI  34
LOS ALAMOS     CLEAR     41  27  56 SW7       30.23S
SANTA FE       CLEAR     44  26  49 SE10      30.19F
TAOS           CLEAR     36  21  55 N6        30.25S WCI  31
ANGEL FIRE     FAIR      32  26  77 SW3       30.26R

$$
NMZ402-403-502-505>509-181100-
WESTCENTRAL MOUNTAINS/SOUTHWEST MOUNTAINS

CITY           SKY/WX    TMP DP  RH WIND       PRES   REMARKS
GALLUP         FAIR      32  13  45 W3        30.13F
SILVER CITY    FAIR      52  23  32 E6        30.14S

$$
NMZ407-409-411-412-181100-
SOUTHERN DESERTS

CITY           SKY/WX    TMP DP  RH WIND       PRES   REMARKS
DEMING         FAIR      56  27  32 E14       30.07R
LAS CRUCES     FAIR      58  29  32 SE13      30.10S
HOLLOMAN AFB   MOCLDY    50  26  38 SW5       30.10R
T OR C         FAIR      50  18  28 W3        30.10S

$$
NMZ519>523-181100-
CENTRAL VALLEYS/CENTRAL HIGHLANDS

CITY           SKY/WX    TMP DP  RH WIND       PRES   REMARKS
ALBUQUERQUE    PTCLDY    49  26  41 N9        30.14F
DOUBLE EAGLE   PTCLDY    40  24  54 N3        30.17S
CLINES CORNERS PTCLDY    36  27  69 S8        30.19F WCI  30
BELEN          FAIR      47  26  43 NE9       30.14S
SOCORRO        NOT AVBL

$$
NMZ524>526-539-540-181100-
SOUTHCENTRAL MOUNTAINS

CITY           SKY/WX    TMP DP  RH WIND       PRES   REMARKS
RUIDOSO        NOT AVBL

$$
NMZ527>531-181100-
NORTHEAST HIGHLANDS/NORTHEAST PLAINS

CITY           SKY/WX    TMP DP  RH WIND       PRES   REMARKS
LAS VEGAS      CLEAR     34  27  75 SW12      30.21F WCI  25
RATON          CLEAR     33  30  88 N8        30.18F WCI  26
CLAYTON        CLEAR     37  32  82 SW13      30.16F WCI  29

$$
NMZ532>537-181100-
EASTCENTRAL PLAINS

CITY           SKY/WX    TMP DP  RH WIND       PRES   REMARKS
TUCUMCARI      CLEAR     40  33  76 W8        30.20S WCI  34
CANNON AFB     CLEAR     35  34  94 SE6       30.22S WCI  30
CLOVIS AIRPORT CLEAR     34  28  80 S5        30.24F WCI  30

$$
NMZ028-029-538-181100-
SOUTHEAST PLAINS

CITY           SKY/WX    TMP DP  RH WIND       PRES   REMARKS
ROSWELL        MOCLDY    49  40  71 S10       30.20S
CARLSBAD       CLOUDY    53  42  66 E7        30.19R
HOBBS          CLOUDY    45  43  93 E9        30.21F FOG


$$



USA.gov is the U.S. government's official web portal to all federal, state and local government web resources and services.